Location: Bourg-d�Oueil
(42.8588°N, 0.4991°E)
Time: 20:39:14
(UTC+00:00)

GP-B - Pass Details

Date: 16 June 2021
Orbit: 631 x 634 km, 89.8° (Epoch: 23 July)

Event Time Altitude Azimuth Distance (km) Brightness Sun altitude
Rises 23:30:21 0° 11° (N) 2,941 7.8 -23.4°
Reaches altitude 10° 23:32:46 10° 20° (NNE) 2,027 6.5 -23.5°
Maximum altitude 23:36:49 33° 86° (E) 1,060 4.2 -23.6°
Enters shadow 23:37:02 33° 92° (E) 1,064 4.1 -23.6°
